This demonstration page uses our WeatherBlox Daily Observations layout. Learn more.

Left ArrowRight Arrow

38.89511, -77.03637

Hourly Observations for May 30, 2018

Temp ( °F °C ) Dew Point ( °F °C ) Humidity (%) Winds ( mph kmh ) Pressure ( in mb ) Visibility ( mi km ) Precip ( " mm )
12:52 am 00:52 Mostly Cloudy 73 22.8 69 20.6 87 87 S 3 6 30.01 1016 10 16 0.00 0.00
1:52 am 01:52 Mostly Cloudy 73 22.8 69 20.6 87 87 Calm 30.00 1016 10 16 0.00 0.00
2:52 am 02:52 Mostly Cloudy 72 22.2 68 20 87 87 Calm 30.00 1016 10 16 0.00 0.00
3:52 am 03:52 Mostly Cloudy 72 22.2 68 20 87 87 Calm 30.00 1016 10 16 0.00 0.00
4:08 am 04:08 Cloudy 72 22.2 68 20 87 87 SSE 3 6 30.00 1016 10 16 0.00 0.00
4:19 am 04:19 Cloudy 72 22.2 68 20 87 87 ESE 3 6 30.00 1016 10 16 0.00 0.00
4:52 am 04:52 Cloudy 72 22.2 68 20 87 87 ESE 6 9 30.01 1016 10 16 0.00 0.00
5:03 am 05:03 Cloudy with Mist and Fog 71 21.7 69 20.6 94 94 E 5 7 30.03 1017 1 2 0.00 0.00
5:06 am 05:06 Mostly Cloudy with Fog 71 21.7 69 20.6 94 94 ESE 5 7 30.03 1017 1 1 0.00 0.00
5:08 am 05:08 Mostly Cloudy with Fog 71 21.7 69 20.6 94 94 E 5 7 30.03 1017 0 0 0.00 0.00
5:18 am 05:18 Cloudy with Mist and Fog 71 21.7 69 20.6 94 94 SE 3 6 30.03 1017 1 1 0.00 0.00
5:32 am 05:32 Cloudy with Mist and Fog 71 21.7 69 20.6 94 94 ESE 6 9 30.03 1017 1 2 0.00 0.00
5:52 am 05:52 Cloudy with Mist and Fog 71 21.7 69 20.6 94 94 ESE 6 9 30.03 1017 2 2 0.00 0.00
6:45 am 06:45 Cloudy with Mist and Fog 71 21.7 68 20 90 90 E 7 11 30.06 1018 3 5 0.00 0.00
6:52 am 06:52 Cloudy with Mist and Fog 71 21.7 68 20 90 90 ESE 7 11 30.05 1018 3 5 0.00 0.00
7:27 am 07:27 Cloudy with Mist and Fog 72 22.2 69 20.6 91 91 E 7 11 30.06 1018 5 8 0.00 0.00
7:45 am 07:45 Cloudy with Mist and Fog 73 22.8 69 20.6 87 87 E 5 7 30.06 1018 5 8 0.00 0.00
7:52 am 07:52 Cloudy with Mist and Fog 73 22.8 69 20.6 87 87 E 7 11 30.06 1018 6 10 0.00 0.00
8:52 am 08:52 Cloudy 73 22.8 69 20.6 87 87 SSE 5 7 30.06 1018 7 11 0.00 0.00
9:23 am 09:23 Cloudy 75 23.9 69 20.6 82 82 SE 7 11 30.06 1018 10 16 0.00 0.00
9:52 am 09:52 Cloudy 75 23.9 69 20.6 82 82 ESE 9 15 30.06 1018 10 16 0.00 0.00
10:35 am 10:35 Cloudy 76 24.4 69 20.6 79 79 SE 8 13 30.06 1018 10 16 0.00 0.00
10:52 am 10:52 Cloudy 76 24.4 69 20.6 79 79 SE 9 15 30.06 1018 10 16 0.00 0.00
11:52 am 11:52 Cloudy 77 25 69 20.6 77 77 SSE 7 11 30.06 1018 10 16 0.00 0.00
12:52 pm 12:52 Cloudy 77 25 70 21.1 79 79 S 7 11 30.06 1018 10 16 0.00 0.00
1:52 pm 13:52 Cloudy 79 26.1 69 20.6 72 72 ESE 9 15 30.04 1017 10 16 0.00 0.00
2:39 pm 14:39 Cloudy 76 24.4 69 20.6 79 79 SE 10 17 30.03 1017 10 16 0.00 0.00
2:52 pm 14:52 Cloudy 79 26.1 69 20.6 72 72 SE 10 17 30.02 1017 10 16 0.00 0.00
2:58 pm 14:58 Cloudy 80 26.7 69 20.6 69 69 ESE 12 19 30.03 1017 10 16 0.00 0.00
3:15 pm 15:15 Mostly Cloudy 80 26.7 70 21.1 71 71 SE 9 15 30.03 1017 10 16 0.00 0.00
3:18 pm 15:18 Mostly Cloudy 80 26.7 69 20.6 69 69 SE 14 22 30.03 1017 10 16 0.00 0.00
3:52 pm 15:52 Cloudy 80 26.7 69 20.6 69 69 ESE 14 22 30.01 1016 10 16 0.00 0.00
4:52 pm 16:52 Cloudy 79 26.1 68 20 69 69 ESE 13 20 29.99 1016 10 16 0.00 0.00
5:52 pm 17:52 Cloudy 78 25.6 68 20 71 71 ESE 10 17 29.99 1016 10 16 0.00 0.00
6:52 pm 18:52 Mostly Cloudy 77 25 69 20.6 77 77 SE 12 19 29.98 1015 10 16 0.00 0.00
7:33 pm 19:33 Cloudy 77 25 68 20 74 74 SE 15 24 30.00 1016 10 16 0.00 0.00
7:37 pm 19:37 Cloudy 77 25 69 20.6 77 77 SE 14 22 30.00 1016 10 16 0.00 0.00
7:41 pm 19:41 Cloudy 76 24.4 69 20.6 79 79 SE 12 19 30.00 1016 10 16 0.00 0.00
7:44 pm 19:44 Cloudy 76 24.4 69 20.6 79 79 SE 13 20 30.00 1016 10 16 0.00 0.00
7:47 pm 19:47 Cloudy 75 24 70 21 83 83 SE 12 19 30.00 1016 10 16 0.00 0.00
7:52 pm 19:52 Cloudy 76 24.4 68 20 77 77 SE 15 24 29.99 1016 10 16 0.00 0.00
7:55 pm 19:55 Cloudy 76 24.4 68 20 77 77 SE 15 24 30.00 1016 10 16 0.00 0.00
8:50 pm 20:50 Mostly Cloudy 75 24 68 20 78 78 SE 10 17 30.00 1016 10 16 0.00 0.00
8:52 pm 20:52 Mostly Cloudy 75 23.9 68 20 79 79 SSE 10 17 30.00 1016 10 16 0.00 0.00
9:52 pm 21:52 Cloudy 75 23.9 68 20 79 79 SE 9 15 30.01 1016 10 16 0.00 0.00
10:52 pm 22:52 Cloudy 74 23.3 68 20 82 82 ESE 10 17 30.01 1016 10 16 0.00 0.03
11:52 pm 23:52 Cloudy 73 22.8 68 20 84 84 ESE 10 17 30.01 1016 7 11 0.00 0.03

Powered by AerisWeather